EA8CHC Sevilla ES current weather conditions

sailwx.info

Wind from 073 at 0 knots gusting 3

Air temperature 18.3° C
Dewpoint 14.0° C

Last reported at 2015-May-27 06:47 UTC.
Time now 2015-May-27 07:57 UTC

Location: N 37°26' W 006°03'.
View on Google Maps.

See reports from other nearby stations

  
Tides and Currents Weather Stations Pressure Air Temp Water Temp Dewpoint Dewpoint Depression Visibility Wind Speed Wind Dir Waves Ship Positions
date/time (UTC)wind fromknots sea level pressurealtimeterstation pressurevisibilityair tempwater tempwave heightnotes
2015-May-27 06:47 073 0 gusting 3 18.3
2015-May-27 06:42 009 0 gusting 3 18.3
2015-May-27 06:37 009 0 gusting 3 18.3
2015-May-27 06:32 338 17.8
2015-May-27 06:27 311 17.8
2015-May-27 06:22 311 17.2
2015-May-27 06:17 311 17.2
2015-May-27 06:12 311 17.2
2015-May-27 06:07 311 16.7
2015-May-27 06:02 311 0 gusting 1 16.7
2015-May-27 05:57 311 0 gusting 1 16.7
2015-May-27 05:52 311 16.7
2015-May-27 05:47 311 16.7
2015-May-27 05:42 311 16.1
2015-May-27 05:37 311 16.1
2015-May-27 05:32 311 0 gusting 2 16.1
2015-May-27 05:27 311 0 gusting 2 16.1
2015-May-27 05:22 311 0 gusting 2 16.1
2015-May-27 05:17 311 0 gusting 2 16.1
2015-May-27 05:12 311 16.1
2015-May-27 05:07 311 16.1
2015-May-27 05:02 277 16.7
2015-May-27 04:57 277 0 gusting 2 16.7
2015-May-27 04:52 277 0 gusting 2 16.7
2015-May-27 04:47 277 0 gusting 2 16.7
2015-May-27 04:42 277 16.7
2015-May-27 04:37 277 16.7
2015-May-27 04:32 277 16.7
2015-May-27 04:27 277 16.7
2015-May-27 04:22 277 17.2
2015-May-27 04:17 277 16.7
2015-May-27 04:12 277 17.2
2015-May-27 04:07 277 17.2
2015-May-27 04:02 277 17.2
2015-May-27 03:57 277 17.2
2015-May-27 03:52 277 17.2
2015-May-27 03:47 277 17.2
2015-May-27 03:42 277 17.2
2015-May-27 03:37 277 17.2
2015-May-27 03:32 277 17.2
2015-May-27 03:27 277 17.2
2015-May-27 03:22 277 17.2
2015-May-27 03:17 277 17.2
2015-May-27 03:12 277 17.2
2015-May-27 03:07 277 0 gusting 3 17.2
2015-May-27 03:02 277 1 gusting 3 17.2
2015-May-27 02:57 277 0 gusting 3 17.2
2015-May-27 02:52 312 0 gusting 3 17.2
2015-May-27 02:47 307 0 gusting 3 17.8
2015-May-27 02:42 310 17.8
2015-May-27 02:37 310 17.8
2015-May-27 02:32 310 17.8
2015-May-27 02:27 310 18.3
2015-May-27 02:22 310 18.3
2015-May-27 02:17 310 18.3
2015-May-27 02:12 310 18.3
2015-May-27 02:07 310 18.3
2015-May-27 02:02 310 18.3
2015-May-27 01:57 310 18.3
2015-May-27 01:52 310 18.3
2015-May-27 01:47 310 18.3
2015-May-27 01:42 277 0 gusting 2 18.3
2015-May-27 01:37 030 18.9
2015-May-27 01:32 035 18.9
2015-May-27 01:27 035 18.9
2015-May-27 01:22 035 18.9
2015-May-27 01:17 035 0 gusting 3 19.4
2015-May-27 01:12 024 0 gusting 0 19.4
2015-May-27 01:07 213 19.4
2015-May-27 01:02 213 19.4
2015-May-27 00:57 213 19.4
2015-May-27 00:52 213 20.0
2015-May-27 00:47 213 20.0
2015-May-27 00:42 213 0 gusting 3 20.0
2015-May-27 00:37 215 0 gusting 3 20.0
2015-May-27 00:32 215 0 gusting 2 20.0
2015-May-27 00:27 215 0 gusting 2 20.0
2015-May-27 00:22 217 20.0
2015-May-27 00:17 241 20.0
2015-May-27 00:12 241 20.0
2015-May-27 00:07 209 20.0
2015-May-27 00:02 209 0 gusting 4 20.0
2015-May-26 23:57 209 1 gusting 4 20.0
2015-May-26 23:52 215 1 gusting 5 20.0
2015-May-26 23:47 165 2 gusting 5 20.0
2015-May-26 23:42 167 2 gusting 6 20.0
2015-May-26 23:37 153 2 gusting 6 20.6
2015-May-26 23:32 155 0 gusting 5 20.6
2015-May-26 23:27 196 20.6
2015-May-26 23:22 186 0 gusting 5 20.6
2015-May-26 23:17 186 1 gusting 5 20.6
2015-May-26 23:12 109 1 gusting 5 20.6
2015-May-26 23:07 220 0 gusting 5 20.6
2015-May-26 23:02 147 20.6
2015-May-26 22:57 303 0 gusting 4 21.1
2015-May-26 22:52 110 1 gusting 6 21.1
2015-May-26 22:47 122 1 gusting 6 21.1
2015-May-26 22:42 115 2 gusting 5 21.1
2015-May-26 22:37 153 1 gusting 5 21.1
2015-May-26 22:32 136 1 gusting 7 21.1
2015-May-26 22:27 159 3 gusting 7 21.1
2015-May-26 22:22 189 5 gusting 7 21.7
2015-May-26 22:17 170 5 gusting 7 21.7
2015-May-26 22:12 188 3 gusting 5 21.7
2015-May-26 22:07 156 3 gusting 5 21.7
2015-May-26 22:02 151 2 gusting 5 22.2
2015-May-26 21:57 160 2 gusting 5 22.2
2015-May-26 21:52 166 1 gusting 5 22.2
2015-May-26 21:47 218 1 gusting 5 22.8
2015-May-26 21:42 190 1 gusting 5 22.8
2015-May-26 21:37 179 0 gusting 5 22.8
2015-May-26 21:32 225 1 gusting 5 23.3
2015-May-26 21:27 225 2 gusting 5 23.3
2015-May-26 21:22 178 2 gusting 6 23.3
2015-May-26 21:17 181 1 gusting 6 23.3
2015-May-26 21:12 139 0 gusting 2 23.3
2015-May-26 21:07 222 0 gusting 2 23.3
2015-May-26 21:02 222 0 gusting 3 23.3
2015-May-26 20:57 222 0 gusting 3 23.3
2015-May-26 20:52 222 0 gusting 3 23.3
2015-May-26 20:47 229 0 gusting 3 23.3
2015-May-26 20:42 240 0 gusting 3 23.3
2015-May-26 20:37 245 0 gusting 3 23.3
2015-May-26 20:32 209 0 gusting 2 23.3
2015-May-26 20:27 231 0 gusting 2 23.9
2015-May-26 20:22 225 0 gusting 5 23.9
2015-May-26 20:17 325 1 gusting 5 23.9
2015-May-26 20:12 293 1 gusting 6 23.9
2015-May-26 20:07 267 2 gusting 6 24.4
2015-May-26 20:02 264 4 gusting 10 24.4
2015-May-26 19:57 271 4 gusting 10 24.4
2015-May-26 19:52 281 5 gusting 12 24.4
2015-May-26 19:47 280 6 gusting 12 24.4
2015-May-26 19:42 257 6 gusting 13 25.0
2015-May-26 19:37 271 7 gusting 13 25.0
2015-May-26 19:32 261 7 gusting 14 25.0
2015-May-26 19:27 251 7 gusting 14 25.6
2015-May-26 19:22 277 7 gusting 12 25.6
2015-May-26 19:17 269 6 gusting 12 26.1
2015-May-26 19:12 273 5 gusting 12 26.1
2015-May-26 19:07 246 5 gusting 12 26.7
2015-May-26 19:02 280 5 gusting 13 26.7
2015-May-26 18:57 296 6 gusting 13 26.7
2015-May-26 18:52 239 5 gusting 12 26.7
2015-May-26 18:47 262 5 gusting 12 27.2
2015-May-26 18:42 256 6 gusting 12 27.2
2015-May-26 18:37 247 6 gusting 12 27.2
2015-May-26 18:32 225 6 gusting 13 27.8
2015-May-26 18:27 250 6 gusting 13 27.8
2015-May-26 18:22 244 6 gusting 13 27.8
2015-May-26 18:17 256 6 gusting 13 28.3
2015-May-26 18:12 254 7 gusting 13 28.3
2015-May-26 18:07 257 6 gusting 13 28.3
2015-May-26 18:02 244 6 gusting 15 28.9
2015-May-26 17:57 211 6 gusting 15 28.9
2015-May-26 17:52 227 7 gusting 15 28.9
2015-May-26 17:47 234 8 gusting 15 28.9
2015-May-26 17:42 229 7 gusting 18 29.4
2015-May-26 17:37 208 8 gusting 18 29.4
2015-May-26 17:32 236 9 gusting 19 29.4
2015-May-26 17:27 239 9 gusting 19 29.4
2015-May-26 17:22 265 10 gusting 18 29.4
2015-May-26 17:17 227 10 gusting 18 29.4
2015-May-26 17:12 211 10 gusting 15 29.4
2015-May-26 17:07 224 9 gusting 15 30.0
2015-May-26 17:02 205 8 gusting 16 30.0
2015-May-26 16:57 205 8 gusting 16 30.0
2015-May-26 16:52 217 8 gusting 16 30.0
2015-May-26 16:47 218 8 gusting 16 30.6
2015-May-26 16:42 235 8 gusting 15 30.6
2015-May-26 16:37 195 7 gusting 15 30.6
2015-May-26 16:32 247 6 gusting 13 30.6
2015-May-26 16:27 225 6 gusting 13 30.6
2015-May-26 16:22 196 7 gusting 15 30.6
2015-May-26 16:17 184 8 gusting 15 30.6
2015-May-26 16:12 178 8 gusting 15 30.6
2015-May-26 16:07 163 8 gusting 15 30.6
2015-May-26 16:02 211 7 gusting 13 30.6
2015-May-26 15:57 218 5 gusting 13 30.6
2015-May-26 15:52 144 5 gusting 12 30.6
2015-May-26 15:47 180 6 gusting 12 30.6
2015-May-26 15:42 218 4 gusting 9 30.6
2015-May-26 15:37 237 3 gusting 9 30.6
2015-May-26 15:32 174 4 gusting 11 30.6
2015-May-26 15:27 238 5 gusting 11 30.6
2015-May-26 15:22 224 5 gusting 13 30.6
2015-May-26 15:17 238 6 gusting 13 30.0
2015-May-26 15:12 171 6 gusting 13 30.0
2015-May-26 15:07 178 6 gusting 13 30.0
2015-May-26 15:02 159 6 gusting 13 30.0
2015-May-26 14:57 173 6 gusting 13 30.0
2015-May-26 14:52 152 6 gusting 10 30.0
2015-May-26 14:47 157 4 gusting 10 30.0
2015-May-26 14:42 150 4 gusting 11 30.0
2015-May-26 14:37 220 6 gusting 11 30.0
2015-May-26 14:32 159 4 gusting 7 30.0
2015-May-26 14:27 195 2 gusting 7 30.0
2015-May-26 14:22 238 2 gusting 12 30.0
2015-May-26 14:17 165 3 gusting 12 30.0
2015-May-26 14:12 193 5 gusting 10 29.4
2015-May-26 14:07 259 3 gusting 10 29.4
2015-May-26 14:02 226 1 gusting 8 29.4
2015-May-26 13:57 186 2 gusting 8 29.4
2015-May-26 13:52 198 3 gusting 6 29.4
2015-May-26 13:47 171 3 gusting 6 28.9
2015-May-26 13:42 149 2 gusting 8 28.9
2015-May-26 13:37 140 3 gusting 8 28.9
2015-May-26 13:32 140 3 gusting 8 28.9
2015-May-26 13:27 189 2 gusting 8 28.9
2015-May-26 13:22 097 3 gusting 8 28.9
2015-May-26 13:17 180 3 gusting 8 28.9
2015-May-26 13:12 258 2 gusting 7 28.9
2015-May-26 13:07 148 2 gusting 7 28.3
2015-May-26 13:02 207 1 gusting 8 28.3
2015-May-26 12:57 342 2 gusting 8 28.3
2015-May-26 12:52 141 4 gusting 8 27.8
2015-May-26 12:47 169 3 gusting 8 27.8
2015-May-26 12:42 194 3 gusting 8 27.8
2015-May-26 12:37 237 3 gusting 8 27.8
2015-May-26 12:32 233 1 gusting 8 27.2
2015-May-26 12:27 217 1 gusting 8 27.2
2015-May-26 12:22 250 3 gusting 8 27.2
2015-May-26 12:17 171 3 gusting 6 26.7
2015-May-26 12:12 273 1 gusting 9 26.7
2015-May-26 12:07 252 2 gusting 9 26.7
2015-May-26 12:02 131 2 gusting 9 26.7
2015-May-26 11:57 053 2 gusting 9 26.1
2015-May-26 11:52 258 3 gusting 7 26.1
2015-May-26 11:47 203 3 gusting 7 26.1
2015-May-26 11:42 229 3 gusting 7 26.1
2015-May-26 11:37 236 3 gusting 7 26.1
2015-May-26 11:32 240 3 gusting 6 25.6
2015-May-26 11:27 244 2 gusting 6 25.6
2015-May-26 11:22 208 0 gusting 7 25.6
2015-May-26 11:17 138 1 gusting 7 25.0
2015-May-26 11:12 215 2 gusting 7 24.4
2015-May-26 11:07 305 2 gusting 7 24.4
2015-May-26 11:02 355 3 gusting 9 24.4
2015-May-26 10:57 315 2 gusting 9 24.4
2015-May-26 10:52 264 2 gusting 7 24.4
2015-May-26 10:47 299 3 gusting 7 24.4
2015-May-26 10:42 282 2 gusting 8 23.9
2015-May-26 10:37 291 2 gusting 8 23.9
2015-May-26 10:32 263 3 gusting 8 23.9
2015-May-26 10:27 298 3 gusting 8 24.4
2015-May-26 10:22 234 1 gusting 8 24.4
2015-May-26 10:17 155 1 gusting 8 23.9
2015-May-26 10:12 209 1 gusting 6 23.9
2015-May-26 10:07 285 2 gusting 6 23.3
2015-May-26 10:02 229 2 gusting 5 23.3
2015-May-26 09:57 288 0 gusting 5 23.3
2015-May-26 09:52 290 1 gusting 8 23.3
2015-May-26 09:47 225 2 gusting 8 22.8
2015-May-26 09:42 211 3 gusting 8 22.8
2015-May-26 09:37 231 1 gusting 8 23.3
2015-May-26 09:32 262 0 gusting 6 23.3
2015-May-26 09:27 207 0 gusting 6 22.8
2015-May-26 09:22 229 2 gusting 7 22.2
2015-May-26 09:17 225 3 gusting 7 22.2
2015-May-26 09:12 294 2 gusting 6 22.2
2015-May-26 09:07 202 2 gusting 6 22.2
2015-May-26 09:02 193 3 gusting 8 22.2
2015-May-26 08:57 277 2 gusting 8 22.2
2015-May-26 08:52 170 2 gusting 7 22.2
2015-May-26 08:47 219 2 gusting 7 22.2
2015-May-26 08:42 243 2 gusting 7 21.7
2015-May-26 08:37 217 3 gusting 7 21.7
2015-May-26 08:32 215 2 gusting 7 21.7
2015-May-26 08:27 227 2 gusting 7 21.7
2015-May-26 08:22 207 3 gusting 7 21.1
2015-May-26 08:17 160 3 gusting 7 21.1
2015-May-26 08:12 207 2 gusting 7 21.1
2015-May-26 08:07 225 2 gusting 7 21.1
2015-May-26 08:02 234 1 gusting 4 20.6
2015-May-26 07:57 253 1 gusting 4 20.6
2015-May-26 07:52 192 0 gusting 3 20.6
2015-May-26 07:47 115 0 gusting 3 20.6
2015-May-26 07:42 136 20.6
2015-May-26 07:37 165 20.0
2015-May-26 07:32 165 20.0
2015-May-26 07:27 150 20.0
2015-May-26 07:22 150 19.4
2015-May-26 07:17 113 19.4
2015-May-26 07:12 100 0 gusting 3 19.4
2015-May-26 07:07 100 0 gusting 3 19.4
2015-May-26 07:02 190 19.4
2015-May-26 06:57 190 18.9
2015-May-26 06:52 190 18.9
2015-May-26 06:47 212 18.9
2015-May-26 06:42 212 18.3
2015-May-26 06:37 212 18.3
2015-May-26 06:32 288 18.3
2015-May-26 06:27 288 18.3
2015-May-26 06:22 288 17.8
2015-May-26 06:17 288 17.8
2015-May-26 06:12 288 17.2
2015-May-26 06:07 288 17.2
2015-May-26 06:02 288 16.7
2015-May-26 05:57 288 16.7
2015-May-26 05:52 288 0 gusting 2 16.7
2015-May-26 05:47 288 0 gusting 2 16.7
2015-May-26 05:42 288 16.7
2015-May-26 05:37 288 16.1
2015-May-26 05:32 288 16.1
2015-May-26 05:27 288 16.1
2015-May-26 05:22 288 16.1
2015-May-26 05:17 288 16.1
2015-May-26 05:12 288 16.1
2015-May-26 05:07 288 16.1
2015-May-26 05:02 288 16.1
2015-May-26 04:57 288 16.1
2015-May-26 04:52 288 16.1
2015-May-26 04:47 288 16.1
2015-May-26 04:42 288 0 gusting 3 16.1
2015-May-26 04:37 288 0 gusting 3 16.1
2015-May-26 04:32 285 0 gusting 3 16.1
2015-May-26 04:27 284 1 gusting 3 16.1
2015-May-26 04:22 285 1 gusting 4 16.1
2015-May-26 04:17 277 1 gusting 4 16.7
2015-May-26 04:12 271 2 gusting 4 16.7
2015-May-26 04:07 298 2 gusting 4 16.7
2015-May-26 04:02 286 2 gusting 4 16.7
2015-May-26 03:57 274 2 gusting 4 16.7
2015-May-26 03:52 275 2 gusting 3 16.7
2015-May-26 03:47 270 0 gusting 3 16.7
2015-May-26 03:42 259 16.7
2015-May-26 03:37 259 16.7
2015-May-26 03:32 260 0 gusting 3 16.7
2015-May-26 03:27 260 0 gusting 3 16.7
2015-May-26 03:22 259 16.7
2015-May-26 03:17 259 16.7
2015-May-26 03:12 260 0 gusting 2 16.7
2015-May-26 03:07 259 0 gusting 2 16.7
2015-May-26 03:02 259 0 gusting 2 16.7
2015-May-26 02:57 259 0 gusting 2 16.7
2015-May-26 02:52 302 16.7
2015-May-26 02:47 307 0 gusting 3 16.7
2015-May-26 02:42 306 1 gusting 3 16.7
2015-May-26 02:37 289 0 gusting 3 16.7
2015-May-26 02:32 265 1 gusting 6 16.7
2015-May-26 02:27 285 1 gusting 6 16.7
2015-May-26 02:22 276 2 gusting 6 16.7
2015-May-26 02:17 313 3 gusting 6 16.7
2015-May-26 02:12 286 3 gusting 6 16.7
2015-May-26 02:07 286 3 gusting 5 17.2
2015-May-26 02:02 283 2 gusting 4 17.2
2015-May-26 01:57 274 2 gusting 4 17.2
2015-May-26 01:52 319 1 gusting 3 17.2
2015-May-26 01:47 302 0 gusting 3 17.2
2015-May-26 01:42 293 0 gusting 2 17.2
2015-May-26 01:37 311 0 gusting 2 17.2
2015-May-26 01:32 311 0 gusting 3 17.2
2015-May-26 01:27 311 0 gusting 3 17.2
2015-May-26 01:22 311 0 gusting 3 17.2
2015-May-26 01:17 311 0 gusting 3 17.2
2015-May-26 01:12 285 1 gusting 3 17.2
2015-May-26 01:07 272 1 gusting 3 17.2
2015-May-26 01:02 277 0 gusting 4 17.2
2015-May-26 00:57 277 0 gusting 4 17.2
2015-May-26 00:52 277 1 gusting 4 17.2
2015-May-26 00:47 309 1 gusting 4 17.8
2015-May-26 00:42 304 1 gusting 3 17.8
2015-May-26 00:37 299 0 gusting 3 17.8
2015-May-26 00:32 300 1 gusting 3 17.8
2015-May-26 00:27 300 1 gusting 3 17.8
2015-May-26 00:22 315 1 gusting 3 17.8
2015-May-26 00:17 321 0 gusting 4 17.8
2015-May-26 00:12 309 17.8
2015-May-26 00:07 309 0 gusting 5 17.8
2015-May-26 00:02 306 1 gusting 6 17.8
2015-May-25 23:57 272 2 gusting 6 17.8
2015-May-25 23:52 296 2 gusting 6 17.8
2015-May-25 23:47 315 1 gusting 6 18.3
2015-May-25 23:42 307 1 gusting 6 18.3
2015-May-25 23:37 261 3 gusting 6 18.3
2015-May-25 23:32 300 3 gusting 7 18.3
2015-May-25 23:27 250 3 gusting 7 18.3
2015-May-25 23:22 279 3 gusting 9 18.3
2015-May-25 23:17 287 4 gusting 9 18.3
2015-May-25 23:12 263 4 gusting 9 18.3
2015-May-25 23:07 281 3 gusting 7 18.9
2015-May-25 23:02 294 3 gusting 9 18.9
2015-May-25 22:57 280 3 gusting 9 18.9
2015-May-25 22:52 313 4 gusting 7 18.9
2015-May-25 22:47 271 4 gusting 7 18.9
2015-May-25 22:42 294 5 gusting 10 18.9
2015-May-25 22:37 268 6 gusting 10 18.9
2015-May-25 22:32 273 6 gusting 11 18.9
2015-May-25 22:27 288 5 gusting 11 18.9
2015-May-25 22:22 248 6 gusting 11 18.9
2015-May-25 22:17 291 6 gusting 11 18.9
2015-May-25 22:12 264 6 gusting 10 18.9
2015-May-25 22:07 277 6 gusting 10 18.9
2015-May-25 22:02 268 5 gusting 10 18.9
2015-May-25 21:57 238 5 gusting 10 18.9
2015-May-25 21:52 284 5 gusting 8 18.9
2015-May-25 21:47 238 4 gusting 8 19.4
2015-May-25 21:42 254 4 gusting 8 19.4
2015-May-25 21:37 273 4 gusting 8 19.4
2015-May-25 21:32 235 5 gusting 9 19.4
2015-May-25 21:27 269 4 gusting 9 19.4
2015-May-25 21:22 246 4 gusting 8 19.4
2015-May-25 21:17 256 4 gusting 8 19.4
2015-May-25 21:12 289 3 gusting 10 19.4
2015-May-25 21:07 298 3 gusting 13 19.4
2015-May-25 21:02 284 5 gusting 14 20.0
2015-May-25 20:57 211 6 gusting 14 20.0
2015-May-25 20:52 246 6 gusting 13 20.0
2015-May-25 20:47 215 6 gusting 13 20.0
2015-May-25 20:42 278 6 gusting 13 20.0
2015-May-25 20:37 250 6 gusting 13 20.0
2015-May-25 20:32 262 6 gusting 15 20.0
2015-May-25 20:27 280 6 gusting 15 20.6
2015-May-25 20:22 255 6 gusting 15 20.6
2015-May-25 20:17 241 6 gusting 15 20.6
2015-May-25 20:12 239 6 gusting 18 20.6
2015-May-25 20:07 271 6 gusting 18 20.6
2015-May-25 20:02 246 7 gusting 16 20.6
2015-May-25 19:57 262 8 gusting 16 21.1
2015-May-25 19:52 254 7 gusting 16 21.1
2015-May-25 19:47 234 6 gusting 18 21.1
2015-May-25 19:42 228 8 gusting 18 21.7
2015-May-25 19:37 213 10 gusting 19 21.7
2015-May-25 19:32 228 9 gusting 19 21.7
2015-May-25 19:27 209 9 gusting 19 22.2
2015-May-25 19:22 221 10 gusting 19 22.2
2015-May-25 19:17 240 10 gusting 19 22.2
2015-May-25 19:12 236 11 gusting 19 22.8
2015-May-25 19:07 232 10 gusting 20 22.8
2015-May-25 19:02 227 10 gusting 20 23.3
2015-May-25 18:57 235 11 gusting 20 23.3
2015-May-25 18:52 240 11 gusting 20 23.3
2015-May-25 18:47 234 10 gusting 20 23.3
2015-May-25 18:42 246 11 gusting 20 23.3
2015-May-25 18:37 244 12 gusting 20 23.9
2015-May-25 18:32 229 12 gusting 21 23.9
2015-May-25 18:27 220 12 gusting 21 23.9
2015-May-25 18:22 234 12 gusting 21 23.9
2015-May-25 18:17 198 11 gusting 20 24.4
2015-May-25 18:12 223 10 gusting 20 24.4
2015-May-25 18:07 195 12 gusting 20 24.4
2015-May-25 18:02 255 13 gusting 20 25.0
2015-May-25 17:57 231 12 gusting 20 25.0
2015-May-25 17:52 253 11 gusting 20 25.6
2015-May-25 17:47 190 12 gusting 20 25.6
2015-May-25 17:42 218 9 gusting 20 26.1
2015-May-25 17:37 213 5 gusting 9 27.2
2015-May-25 17:32 196 4 gusting 10 27.8
2015-May-25 17:27 192 4 gusting 10 27.8
2015-May-25 17:22 186 5 gusting 10 27.8
2015-May-25 17:17 202 5 gusting 9 27.8
2015-May-25 17:12 202 3 gusting 6 28.3
2015-May-25 17:07 234 3 gusting 6 28.3
2015-May-25 17:02 225 2 gusting 7 28.3
2015-May-25 16:57 238 1 gusting 7 28.3
2015-May-25 16:52 270 3 gusting 8 28.3
2015-May-25 16:47 185 4 gusting 8 28.3
2015-May-25 16:42 165 2 gusting 13 28.3
2015-May-25 16:37 210 3 gusting 13 28.3
2015-May-25 16:32 141 5 gusting 6 28.3
2015-May-25 16:27 080 2 gusting 6 28.3
2015-May-25 16:22 089 1 gusting 7 28.3
2015-May-25 16:17 075 3 gusting 7 28.3
2015-May-25 16:12 223 3 gusting 7 28.3
2015-May-25 16:07 159 2 gusting 13 28.3
2015-May-25 16:02 348 4 gusting 13 28.3
2015-May-25 15:57 111 6 gusting 13 28.3
2015-May-25 15:52 113 6 gusting 13 28.3
2015-May-25 15:47 146 2 gusting 10 28.3
2015-May-25 15:42 039 0 gusting 6 28.3
2015-May-25 15:37 074 2 gusting 12 27.8
2015-May-25 15:32 134 5 gusting 15 27.8
2015-May-25 15:27 111 7 gusting 15 27.8
2015-May-25 15:22 101 7 gusting 15 27.8
2015-May-25 15:17 132 5 gusting 12 27.8
2015-May-25 15:12 097 5 gusting 13 27.8
2015-May-25 15:07 030 6 gusting 15 27.2
2015-May-25 15:02 096 6 gusting 13 27.8
2015-May-25 14:57 090 6 gusting 13 27.8
2015-May-25 14:52 119 5 gusting 13 27.8
2015-May-25 14:47 084 5 gusting 13 27.8
2015-May-25 14:42 110 4 gusting 13 27.8
2015-May-25 14:37 128 2 gusting 13 27.8
2015-May-25 14:32 082 3 gusting 17 27.2
2015-May-25 14:27 082 5 gusting 17 27.2
2015-May-25 14:22 098 7 gusting 17 27.2
2015-May-25 14:17 107 8 gusting 17 27.2
2015-May-25 14:12 092 6 gusting 9 27.2
2015-May-25 14:07 355 2 gusting 12 27.2
2015-May-25 14:02 110 3 gusting 13 26.7
2015-May-25 13:57 065 6 gusting 13 26.7
2015-May-25 13:52 073 6 gusting 13 26.7
2015-May-25 13:47 096 5 gusting 12 26.7
2015-May-25 13:42 102 5 gusting 12 26.7
2015-May-25 13:37 118 5 gusting 12 26.7
2015-May-25 13:32 047 5 gusting 12 26.1
2015-May-25 13:27 102 6 gusting 12 26.1
2015-May-25 13:22 103 6 gusting 13 26.1
2015-May-25 13:17 081 7 gusting 13 26.1
2015-May-25 13:12 108 6 gusting 13 26.1
2015-May-25 13:07 112 3 gusting 11 25.6
2015-May-25 13:02 150 3 gusting 11 25.6
2015-May-25 12:57 146 4 gusting 11 25.6
2015-May-25 12:52 092 4 gusting 11 25.6
2015-May-25 12:47 071 5 gusting 11 25.6
2015-May-25 12:42 113 3 gusting 9 25.6
2015-May-25 12:37 139 2 gusting 9 25.6
2015-May-25 12:32 182 3 gusting 11 25.6
2015-May-25 12:27 102 2 gusting 11 25.6
2015-May-25 12:22 25.6
2015-May-25 12:17 017 5 gusting 11 25.6
2015-May-25 12:12 074 4 gusting 11 25.0
2015-May-25 12:07 337 4 gusting 11 25.0
2015-May-25 12:02 058 5 gusting 8 25.0
2015-May-25 11:57 011 4 gusting 8 25.0
2015-May-25 11:52 071 4 gusting 8 25.0
2015-May-25 11:47 120 3 gusting 8 24.4
2015-May-25 11:42 044 3 gusting 9 24.4
2015-May-25 11:37 164 4 gusting 9 24.4
2015-May-25 11:32 092 4 gusting 9 23.9
2015-May-25 11:27 098 3 gusting 9 23.9
2015-May-25 11:22 097 4 gusting 8 23.9
2015-May-25 11:17 074 4 gusting 8 23.9
2015-May-25 11:12 063 3 gusting 8 23.9
2015-May-25 11:07 109 3 gusting 8 23.3
2015-May-25 11:02 063 3 gusting 7 23.3
2015-May-25 10:57 094 2 gusting 7 23.9
2015-May-25 10:52 005 2 gusting 7 23.3
2015-May-25 10:47 053 2 gusting 6 23.3
2015-May-25 10:42 114 3 gusting 6 23.3
2015-May-25 10:37 057 2 gusting 6 22.8
2015-May-25 10:32 098 3 gusting 6 22.8
2015-May-25 10:27 100 2 gusting 6 22.8
2015-May-25 10:22 044 1 gusting 5 23.3
2015-May-25 10:17 240 1 gusting 6 22.8
2015-May-25 10:12 049 2 gusting 6 22.8
2015-May-25 10:07 080 3 gusting 8 22.8
2015-May-25 10:02 020 3 gusting 8 22.2
2015-May-25 09:57 038 3 gusting 8 22.2
2015-May-25 09:52 22.2
2015-May-25 09:47 106 1 gusting 6 21.7
2015-May-25 09:42 074 1 gusting 7 21.7
2015-May-25 09:37 009 3 gusting 7 21.7
2015-May-25 09:32 347 3 gusting 6 21.7
2015-May-25 09:27 005 4 gusting 6 21.1
2015-May-25 09:22 038 3 gusting 6 21.1
2015-May-25 09:17 346 3 gusting 6 21.1
2015-May-25 09:12 012 3 gusting 6 21.1
2015-May-25 09:07 037 3 gusting 6 21.1
2015-May-25 09:02 21.1
2015-May-25 08:57 005 2 gusting 6 21.1
2015-May-25 08:52 013 2 gusting 5 20.6
2015-May-25 08:47 066 2 gusting 5 20.6
2015-May-25 08:42 040 2 gusting 5 20.6
2015-May-25 08:37 344 1 gusting 5 20.6
2015-May-25 08:32 040 1 gusting 6 20.6
2015-May-25 08:27 014 2 gusting 6 20.0
2015-May-25 08:22 049 2 gusting 4 20.0
2015-May-25 08:17 061 1 gusting 4 20.0
2015-May-25 08:12 005 1 gusting 5 20.0
2015-May-25 08:07 044 1 gusting 5 19.4
2015-May-25 08:02 045 1 gusting 4 19.4
2015-May-25 07:57 036 1 gusting 4 19.4
2015-May-25 07:52 038 1 gusting 4 19.4
2015-May-25 07:47 335 1 gusting 4 19.4
2015-May-25 07:42 026 1 gusting 4 19.4
2015-May-25 07:37 043 2 gusting 4 19.4
2015-May-25 07:32 355 1 gusting 2 18.9
2015-May-25 07:27 18.9
2015-May-25 07:22 321 18.9
2015-May-25 07:17 321 0 gusting 2 18.9
2015-May-25 07:12 319 18.3
2015-May-25 07:07 308 18.3
2015-May-25 07:02 308 0 gusting 2 18.3